CAPE
275 867 1413 1655 2032 2122 2112 2118 2122 2039 2011 1988 1923 1935 1759 1630 1576 1516 1527 1496 1440 1587 1558 1587 1626 1709 1570 1482 1721 1900 2099 2158 2166 2102 2079 2102 2134 2092 1927 1927 1886 1821 1740 1715 1726 1829 1893 2064 2167 2174 2140 1668 1756 1843 1983 2099 1808 1800 1978 2010 2147 2095 1841 1802 1779 1884 1911 1753 1734 1724 1754 1601 1628 1489 1651 1648 1833 1659 1349 1494 1526 1372 1271 1378 1379
664 942 1296 1580 1748 2004 2060 2121 2169 2154 2135 2049 1959 1898 1867 1807 1684 1610 1561 1558 1690 1688 1673 1694 1832 1759 1785 1841 1956 2030 2046 2042 1962 1940 1900 1931 1979 1881 1834 1822 1800 1780 1743 1768 1712 1668 1717 1819 1840 2055 2057 1591 1585 1804 1810 2188 1749 1737 1981 1772 1861 1869 1771 1776 1780 1736 1808 1821 1652 1638 1639 1649 1801 1739 1773 1897 1808 1469 1444 1474 1434 1116 1129 1421 1496
757 927 1204 1486 1862 2029 2145 2200 2184 2153 2152 2068 1998 1992 1937 1852 1868 1879 1816 1726 1740 1737 1780 1788 1852 1879 1863 1948 2013 1952 1917 1808 1742 1710 1749 1838 1857 1768 1805 1791 1821 1736 1782 1801 1733 1612 1639 1785 1659 1704 1452 1658 1490 1563 1818 2110 2239 2090 2024 1774 1893 1756 1689 1806 1678 1777 1816 1665 1548 1488 1771 1769 1526 1633 1561 1649 1658 1653 1584 1514 1459 1436 1292 1525 1508
772 996 1096 1474 1644 1971 1946 1940 2102 2064 2056 2089 2054 1956 1937 2029 2015 2055 1941 1974 1858 1876 1801 1828 1836 1881 1954 1961 1936 1885 1878 1697 1592 1556 1652 1723 1734 1726 1734 1731 1854 1754 1740 1705 1698 1498 1638 1654 1394 1252 1340 1465 1257 1578 1703 2032 1854 1747 1791 1673 1718 1517 1436 1580 1549 1633 1550 1590 1599 1698 1675 1469 1646 1671 1698 1601 1556 1623 1510 1440 1313 1437 1558 1525 1504
920 972 961 1181 1502 1698 2260 1870 1797 1963 2055 2019 1957 1902 1882 1885 1897 1873 1866 1844 1791 1730 1809 1853 1838 1937 1853 1927 1863 1781 1725 1701 1519 1534 1595 1731 1691 1746 1715 1747 1740 1826 1779 1599 1694 1728 1560 1361 1303 1259 1193 1416 1719 1618 1548 1589 1619 1313 1886 1631 1455 1451 1460 1444 1341 1271 1560 1553 1713 1497 1370 1433 1464 1796 1683 1574 1558 1617 1452 1156 1242 1482 1578 1509 1394
972 1041 1023 1161 1439 1529 1930 1866 1905 2007 2088 1974 1902 1945 1847 1893 1896 1814 1908 1865 1783 1850 1678 1738 1616 1905 1844 1768 1720 1709 1626 1635 1578 1522 1598 1668 1721 1733 1711 1672 1688 1683 1754 1619 1819 1699 1572 1387 1153 1290 1114 1278 1572 1591 1669 1750 1638 1482 1661 1591 1339 1412 1412 1392 1248 1275 1508 1612 1579 1159 1169 1235 1378 1517 1798 1607 1628 1537 1330 1364 1509 1490 1332 1421 1284
1022 1062 1086 1242 1321 1637 1909 1909 1884 2020 2026 2029 2039 1975 1942 1924 1946 1873 1832 1845 1897 1944 1777 1833 1704 1620 1721 1730 1682 1626 1578 1534 1543 1562 1565 1596 1626 1630 1673 1698 1663 1764 1635 1697 1933 1740 1578 1449 1336 1355 1312 1396 1779 1545 1749 1837 1653 1460 1366 1391 1313 1431 1572 1376 1416 1457 1618 1373 1292 1198 1209 1273 1250 1272 1570 1633 1667 1531 1516 1622 1481 1390 1286 1176 1214
1050 1070 1088 1253 1414 1841 1723 1755 1873 1993 1963 1931 1934 2058 2039 1955 1902 1884 1871 1817 1922 1907 1892 1830 1814 1594 1620 1593 1621 1624 1468 1488 1618 1529 1582 1551 1526 1594 1604 1758 1585 1637 1535 1928 1871 1648 1646 1765 1691 1502 1378 1643 1804 1646 1954 1808 1549 1411 1330 1378 1354 1390 1563 1512 1440 1404 1849 1414 1216 1147 1278 1266 1321 1390 1462 1692 1735 1729 1642 1446 1308 1297 1177 1236 1259
1061 1163 1297 1441 1624 1848 1866 1846 1917 1972 2058 2096 1947 1923 1964 1885 1983 2040 2016 1946 1906 1899 1887 1900 1856 1746 1622 1582 1579 1499 1512 1464 1531 1650 1730 1585 1480 1612 1717 1768 1851 1718 1739 1808 1651 1703 1697 1774 1645 1657 1620 1776 1850 1974 1801 1669 1652 1419 1339 1329 1568 1531 1550 1714 1625 2007 1352 1276 1280 1192 1264 1230 1268 1268 1492 1719 1777 1711 1470 1298 1235 1225 1196 1138 1128
1291 1398 1499 1572 1685 1949 1980 1963 1889 1780 1867 1992 2010 1941 1921 1960 2070 2067 2035 2064 1981 1948 1949 1923 1841 1785 1611 1578 1593 1499 1481 1530 1386 1580 1728 1781 1769 1642 1656 1645 1602 1772 1714 1667 1552 1469 1579 1604 1681 1530 1680 1788 1803 2056 1972 1968 1830 1751 1830 1989 1834 1850 1728 1874 2105 1868 1008 1026 1217 1099 1212 1416 1144 1278 1518 1471 1598 1558 1399 1297 1278 1090 987 1023 912
1246 1388 1610 1796 1875 2086 2057 2024 1980 1918 1922 2004 1918 1900 1967 2061 2059 2064 1950 2028 1978 1978 1881 1889 1935 1802 1699 1572 1450 1552 1547 1480 1521 1482 1687 1699 1621 1678 1642 1602 1631 1662 1581 1591 1654 1511 1442 1449 1522 1604 1858 1846 2014 2050 2012 1928 1648 1841 2057 1836 1944 1965 2033 2171 2183 1571 1249 1131 1029 1196 1959 1552 1049 1286 1683 1484 1564 1521 1495 1429 1314 1246 1161 935 914
1133 1351 1663 2023 2102 2069 2067 2046 2039 2097 2157 2052 1999 1955 1885 2026 2044 2019 1975 1902 1959 1934 1844 1897 1770 1876 1873 1714 1500 1402 1398 1441 1440 1412 1557 1623 1648 1578 1588 1597 1604 1610 1539 1477 1551 1489 1495 1570 1691 1757 1680 2016 1961 1880 1863 1787 1898 2089 2313 2139 2140 2138 2284 2203 1562 1388 1400 1048 1074 1490 1906 1543 1062 1263 1755 1542 1517 1450 1451 1396 1466 1255 1131 1013 884
1180 1651 1826 1703 1904 2154 2076 2035 2030 2053 2042 2052 1982 1943 1870 1945 1987 1994 1983 1984 1894 1952 1835 1804 1825 1787 1861 1758 1491 1464 1326 1343 1483 1479 1533 1623 1611 1580 1555 1577 1504 1554 1513 1465 1448 1582 1604 1540 1616 1604 1630 1946 1843 1693 1730 1645 1951 2302 2194 2343 2573 2324 2041 2086 1653 1736 1709 1298 1398 1849 1608 933 1059 1372 1720 1448 1554 1288 1378 1292 1295 1189 1128 953 830
1532 1742 1797 1825 1923 2294 2210 2087 2124 2147 2081 1974 1872 1766 1875 1818 1860 1848 1873 1839 1689 1685 1675 1656 1716 1786 1596 1750 1658 1439 1425 1520 1458 1528 1622 1630 1634 1621 1478 1478 1307 1446 1481 1448 1528 1513 1610 1590 1545 1576 1932 1674 1576 1420 1724 1773 1703 2100 2134 2306 2485 2259 1742 1853 1855 1463 1091 1531 1734 1231 1347 1210 1015 1565 1719 1508 1400 1228 1054 965 833 1130 1067 674 598
1564 1688 1690 1692 1888 1969 1680 1996 2064 1966 1880 1900 1764 1811 1708 1695 1733 1713 1739 1794 1754 1816 1826 1670 1638 1831 1644 1705 1613 1605 1509 1518 1490 1492 1635 1639 1401 1496 1555 1411 1460 1548 1491 1512 1547 1551 1606 1721 1589 1608 1711 1611 1617 1770 1886 1646 1937 2011 2312 2442 2356 2173 1844 1514 1540 1315 1165 1387 1531 1503 923 1037 1301 1740 1833 1720 1296 1283 1093 1158 1001 928 929 733 690
1531 1497 1778 1704 1601 1710 2142 2331 2085 2074 1985 1649 1789 1627 1701 1653 1420 1524 1700 1547 1723 1864 1795 1754 1898 1832 1651 1623 1644 1664 1637 1559 1514 1530 1557 1689 1556 1468 1497 1488 1187 1391 1349 1581 1614 1518 1486 1559 1645 1577 1675 1747 1794 1784 1968 1992 2272 2362 2204 2282 2448 2201 2026 1359 1374 1429 1128 1327 1267 1352 886 944 1613 1854 1854 1506 1270 1207 997 1152 785 970 923 732 642
1380 1688 1501 1436 1343 1565 1772 1938 1813 1673 1590 1639 1412 1508 1425 1456 1632 1569 1306 1532 1721 1854 1824 1889 2056 1844 1736 1771 1677 1880 1729 1808 1883 1814 1746 1662 1536 1649 1466 1541 1531 1199 1238 1335 1429 1563 1574 1464 1530 1508 1633 1757 1969 2102 2077 2142 2293 2424 2347 2348 2446 2241 2074 1995 1371 1407 867 1202 1334 1070 869 950 1841 2035 1726 1310 1138 1142 1141 847 714 968 958 784 788
1249 1458 1249 1204 1298 1539 1712 1894 1920 1496 1187 1783 1846 1601 1698 1518 1800 1461 1504 1350 1642 1742 1942 2122 2219 1444 1678 1539 1452 1985 2006 1943 1884 1998 1839 1752 1635 1632 1591 1576 1540 1254 1182 1318 1183 1521 1569 1486 1567 1568 1698 1822 1829 1882 2045 2100 2156 2227 2235 2112 2101 2140 2244 2099 1417 1333 1016 1653 1384 1145 961 1346 1909 2004 1702 1312 1195 1085 985 1012 1093 953 934 908 763
1112 1178 1354 1417 1455 1556 1717 1557 1738 1234 1106 1144 900 1453 1655 1512 1466 1748 1774 1646 1545 1738 1813 1638 1238 1204 1394 1715 1686 1758 1970 1994 1778 1754 2077 1960 1590 1662 1583 1678 1642 1626 1260 1322 1409 1324 1712 1740 1528 1423 1579 1706 1854 1977 2088 2082 2258 2180 2176 2193 1946 1876 1670 1759 1410 1270 1599 1779 1017 1102 836 1553 1774 1913 1589 1417 1064 1092 928 906 766 413 938 784 660
681 818 1019 1117 1323 1574 1700 1816 1630 1470 1271 950 809 768 1527 1806 1465 1619 1766 1896 1804 1564 1262 1154 1190 1057 1091 955 1216 2152 2064 1891 1734 1865 1974 1953 1747 1839 1480 1544 1716 1650 1596 1566 1599 1574 1549 1750 1730 1640 1566 1654 1772 1947 2100 2174 2171 2246 2272 2193 2290 2312 1874 1652 1438 1365 1153 1129 1302 921 1015 1723 1801 1586 1390 1335 1252 1450 949 866 645 572 971 784 589
617 578 442 571 785 877 905 648 510 689 787 736 898 792 1011 2031 1279 1777 1774 1573 1529 2116 1165 1472 1062 1168 695 528 534 1136 1478 1414 1395 1451 2050 1794 1770 1832 1530 1423 1454 1816 1766 1620 1587 1544 1565 1535 1665 1759 1543 1712 1852 2015 1836 1924 2191 2289 2224 2297 2371 1793 1342 1554 1110 1014 1079 945 988 825 1611 1888 1574 1577 1647 1445 1041 1043 942 990 901 690 898 692 543
639 585 547 558 598 594 296 169 54 102 59 129 175 117 342 351 15 7 165 220 974 1776 1152 1130 854 125 411 108 90 302 1098 1021 1432 2081 1473 1481 1434 1662 1690 1351 1238 1389 1566 1654 1640 1576 1473 1525 1715 1832 1924 1718 1672 2047 1794 1708 2129 2152 2155 2023 1754 1360 977 812 1033 967 998 634 847 903 1318 1552 1883 1728 1415 1205 1142 978 1025 944 807 687 822 709 533
170 152 319 215 157 215 38 83 57 64 3 0 0 17 0 0 0 0 0 1 154 73 21 225 0 0 14 0 66 0 28 504 1460 1262 1728 1723 1628 1615 1842 1477 1471 1552 1463 1673 1668 1716 1642 1801 1814 1688 1863 1908 1563 1497 1340 1391 1149 1515 1700 1365 1275 1176 1098 891 811 623 518 508 718 919 790 1241 1532 1758 1499 1466 999 922 973 927 808 894 598 734 557
34 19 45 92 50 52 38 78 94 0 0 0 0 0 0 0 0 0 0 0 0 0 0 0 0 0 0 0 0 0 0 0 298 504 1563 1228 1020 1592 1744 2014 2028 1880 1781 1500 1956 1981 1797 1457 1671 1864 1699 1442 1514 1485 1470 1408 1257 982 756 712 786 848 1141 1068 721 758 964 705 567 961 965 1162 1359 1342 1589 1433 1169 1022 1003 840 698 820 504 744 682
90 229 408 205 179 115 66 62 29 0 0 0 0 0 0 0 0 0 0 0 0 0 0 0 0 0 0 0 0 0 0 0 0 0 0 364 950 1111 630 1325 1545 1377 1905 1037 1464 1256 993 993 623 1040 1472 1392 1350 1321 1229 1000 969 945 724 628 666 737 880 1128 986 748 800 809 525 971 1193 1179 1443 1293 1415 1314 1061 1017 947 956 841 798 541 636 728
209 234 274 306 292 347 324 151 23 2 0 0 0 32 14 0 0 11 0 0 0 0 0 0 0 0 0 0 0 0 0 0 0 0 0 0 6 90 220 980 1284 1417 1316 738 819 772 592 626 449 497 676 691 1190 1328 1281 1124 856 931 742 573 492 521 670 818 712 645 779 976 732 1192 1335 1331 1413 1349 1299 1115 1076 1152 1074 1032 884 724 428 715 766
192 198 250 364 261 230 168 7 0 0 0 0 0 0 0 0 0 248 13 0 0 0 0 0 0 0 0 0 0 0 0 0 0 0 0 0 0 0 70 1026 677 693 1025 353 647 802 866 833 746 866 628 741 826 1152 1138 720 718 835 679 622 515 476 463 466 345 478 401 599 762 1521 1636 1420 1512 1322 1184 1061 944 1056 968 928 882 778 484 323 790
163 170 152 94 254 250 174 111 88 0 0 0 0 0 0 0 0 9 0 412 0 0 0 0 0 0 0 0 0 0 0 0 0 0 0 0 0 0 182 696 862 490 686 545 551 515 489 900 992 1272 1178 799 814 954 898 870 628 765 878 706 550 448 337 344 475 462 274 360 815 1573 1570 1433 1434 1112 1169 1191 944 880 862 945 895 752 659 596 477
54 98 144 275 427 402 114 70 90 57 0 0 0 0 0 0 0 0 0 986 0 0 0 0 0 0 0 0 0 0 0 0 0 0 0 0 1 0 0 791 847 416 504 660 563 603 574 681 887 1136 1157 1157 894 695 843 526 787 831 818 774 764 565 392 297 276 261 248 443 870 1228 1620 1360 1432 1237 1085 1231 1084 928 746 782 880 824 711 617 436
63 94 266 295 325 280 204 125 40 78 72 30 10 4 0 0 0 0 0 340 0 0 0 0 0 0 0 0 0 0 0 0 0 0 0 0 0 0 0 0 179 98 538 753 567 558 543 374 490 774 916 1238 1145 815 848 482 806 659 562 675 865 826 600 403 309 186 234 373 659 1223 1545 1599 1611 1290 1194 1087 1178 967 814 726 808 780 840 618 516
48 184 227 278 660 326 266 360 681 1170 158 224 95 9 2 0 0 0 0 0 0 0 0 0 0 0 0 0 0 0 2 0 0 0 0 0 7 5 0 0 0 45 647 835 595 813 180 356 382 454 607 968 1132 937 789 566 520 574 784 933 586 476 468 488 624 348 308 245 409 745 1087 1513 1651 1358 1176 1171 1072 1188 833 818 861 859 857 707 688
13 21 80 170 216 223 361 572 655 824 248 145 210 107 6 40 61 0 0 0 130 0 0 0 0 0 0 0 0 0 11 0 0 0 0 6 8 4 6 2 0 0 257 832 649 528 288 353 429 536 416 546 640 595 671 579 520 524 544 511 396 430 468 387 350 639 611 479 472 532 671 1061 1683 1542 1318 1275 1111 1045 1016 942 1297 1070 1071 925 723
0 16 124 288 275 298 292 226 34 7 26 96 71 94 83 1 1 0 0 0 0 0 0 0 0 0 0 0 0 3 2 0 0 0 4 7 4 3 4 2 0 0 3 203 580 696 342 438 409 420 547 292 366 380 382 461 601 643 418 402 442 309 287 391 500 503 651 786 623 494 416 650 1107 1552 1418 1396 1236 1075 1022 1173 1408 1197 1109 978 757
58 120 195 216 223 365 394 165 82 313 432 410 142 64 97 95 212 0 98 0 0 0 0 0 0 0 0 0 0 6 14 2 12 18 16 12 9 8 0 0 0 0 18 146 393 754 424 408 543 600 834 462 461 563 362 310 171 201 378 495 594 544 337 124 465 675 616 607 628 647 544 480 686 1074 1229 1241 1268 1283 984 898 1034 1020 1151 1095 931
60 12 36 78 481 195 369 109 247 417 149 45 53 117 325 58 0 269 7 0 0 0 0 0 0 0 0 0 0 8 8 11 21 18 17 11 12 8 0 0 0 0 13 12 0 0 18 10 404 683 434 402 502 742 402 279 188 130 342 403 502 504 340 468 546 689 758 686 671 669 628 628 616 726 1114 1222 1115 959 986 1049 832 678 988 1104 993
0 0 40 126 82 198 561 22 445 111 46 76 118 43 143 373 139 786 141 65 0 0 0 0 0 0 0 0 0 18 8 12 23 23 15 11 10 0 0 0 0 0 1 3 1 0 0 0 0 350 92 274 720 438 397 326 276 358 378 246 292 315 358 582 645 727 837 869 828 676 558 589 666 801 927 1122 811 978 1015 936 864 861 983 864 763
0 0 49 25 10 326 701 61 116 19 33 329 222 259 361 289 229 317 364 73 0 0 0 0 0 0 0 0 0 14 6 10 26 36 34 23 9 6 0 0 0 0 0 0 0 0 0 0 0 21 3 420 490 479 354 369 422 455 392 359 266 236 189 310 380 476 731 884 994 812 647 547 582 904 908 1062 965 718 514 819 739 704 943 790 639
38 0 0 0 0 206 20 7 46 7 13 15 239 350 464 256 216 257 768 42 21 0 0 0 0 0 0 0 0 0 112 4 28 50 33 146 13 13 15 0 0 0 0 0 0 0 0 0 0 0 0 32 266 314 134 203 423 415 319 286 334 29 7 244 418 596 684 642 758 765 801 720 612 638 785 886 903 787 572 773 736 480 827 759 597
10 0 23 4 0 0 0 492 110 110 238 339 1020 330 247 304 328 301 88 197 32 1 0 0 0 0 0 0 0 0 6 4 26 45 104 31 19 20 22 1 3 4 0 0 0 0 0 0 0 0 0 10 33 48 18 71 354 338 192 345 287 339 320 313 415 572 510 590 529 1038 992 740 611 553 525 660 738 722 415 571 645 408 464 863 541
0 64 134 13 27 65 1 208 1 80 188 102 251 253 106 338 498 418 324 412 73 191 0 0 0 0 0 0 0 0 0 2 32 30 97 82 26 18 16 4 4 5 0 0 0 0 0 0 0 0 0 0 0 0 1 11 9 57 332 330 102 335 340 171 189 519 477 469 683 962 952 632 572 517 527 618 572 717 577 648 446 549 570 781 608
26 111 28 83 54 14 72 0 18 28 10 149 386 294 318 244 310 466 560 493 456 109 0 0 0 0 0 0 0 0 0 4 15 53 27 58 21 15 12 6 3 5 0 0 0 0 0 0 0 0 0 0 0 0 0 1 1 1 370 315 9 6 238 445 339 385 544 617 800 807 845 654 534 471 436 490 673 614 465 692 538 481 644 691 765
152 36 45 87 127 93 42 0 136 41 54 103 469 528 484 496 328 330 533 447 327 41 5 0 0 0 0 0 0 0 0 0 24 20 8 13 16 13 4 14 1 0 1 0 0 0 0 0 0 0 0 0 0 0 0 0 0 3 71 470 0 0 42 43 243 242 439 604 813 819 802 776 642 586 528 525 497 584 591 686 620 470 649 838 854
94 65 11 64 115 94 36 0 0 104 100 176 44 89 523 786 529 374 448 447 382 460 58 52 98 0 0 0 0 0 0 0 0 50 0 3 14 16 6 11 10 6 0 0 0 0 0 0 0 0 0 0 0 0 0 0 0 0 0 5 7 282 6 0 0 0 18 233 593 673 733 697 656 622 510 504 550 558 600 364 415 323 448 1030 778
139 80 186 234 90 116 0 0 0 0 25 306 132 0 120 638 635 437 577 429 379 1335 88 0 0 0 0 0 0 0 0 0 0 2 0 0 1 16 17 14 1 5 0 0 0 0 0 0 0 0 0 0 0 0 0 0 0 0 0 6 122 58 0 0 0 0 0 0 526 657 596 687 651 761 612 551 528 545 622 389 385 275 365 497 594
319 268 350 491 306 102 10 0 0 0 0 576 256 23 577 540 503 463 364 422 286 59 15 4 0 349 0 0 0 0 0 0 0 0 10 0 1 1 5 12 11 2 0 0 0 0 0 0 0 0 0 0 0 0 0 0 10 190 9 22 24 0 2 45 2 0 0 39 29 604 618 796 398 499 728 654 568 595 608 355 416 346 242 505 758
608 534 510 525 532 261 316 0 0 0 0 106 11 115 307 15 77 92 111 114 93 8 110 71 4 0 0 0 0 0 0 0 0 0 11 4 0 0 0 1 10 5 1 0 0 0 0 0 0 0 0 0 0 0 0 0 0 0 26 218 217 57 35 71 5 7 0 0 1 63 645 146 0 93 505 612 570 510 464 377 323 396 391 191 553
680 602 571 576 586 588 495 0 0 0 0 0 0 52 0 1 10 2 2 74 124 6 0 0 0 0 0 0 0 0 0 0 0 0 0 6 0 0 0 3 15 10 27 0 0 0 0 0 0 0 0 0 0 0 0 0 0 0 0 2 8 420 290 131 43 41 1 2 0 0 2 0 0 10 83 430 525 484 516 448 476 388 174 359 403
693 668 639 629 622 651 568 0 5 109 14 3 0 0 0 0 5 26 118 13 369 445 230 10 0 120 7 0 0 0 0 0 0 0 0 8 1 0 0 6 16 28 12 0 0 0 0 0 2 0 0 0 0 0 0 0 0 0 0 1 3 7 24 192 239 93 44 16 0 0 0 0 0 0 16 110 330 460 466 437 594 596 485 457 506
634 674 699 689 677 676 580 470 36 144 48 18 38 0 1 0 0 0 19 170 432 424 532 617 876 64 0 0 0 0 0 0 0 0 0 9 100 0 0 0 6 14 27 0 0 0 0 0 0 0 0 0 0 0 0 0 0 0 0 2 6 8 4 20 26 4 82 40 0 0 0 0 0 0 0 3 112 389 512 578 577 623 679 666 552
694 683 680 699 700 690 543 446 23 91 54 24 126 46 57 124 1 0 3 98 291 533 182 0 0 0 0 0 0 0 0 0 0 0 0 0 0 0 0 0 1 21 17 0 0 0 0 0 0 0 0 0 0 0 0 0 0 0 0 1 4 3 5 6 4 2 1 83 12 0 0 0 10 0 0 0 0 195 622 683 671 642 639 652 682
690 701 648 685 726 660 487 481 452 223 100 58 110 110 74 81 40 25 115 377 518 562 335 0 0 0 0 0 0 0 0 0 0 0 0 0 0 1 0 0 13 119 5 0 0 0 0 0 0 1 0 0 0 0 0 0 0 0 0 0 0 0 2 2 2 2 1 9 1 0 0 0 0 0 0 0 0 30 449 716 710 669 684 675 670
Wind_Speed
44 40 37 37 36 31 29 32 33 33 34 33 31 31 30 29 29 29 30 30 29 27 25 25 28 31 32 31 31 31 32 33 34 33 34 35 37 38 38 38 39 39 39 39 37 34 33 33 31 30 30 26 27 27 30 29 27 24 28 28 32 33 32 32 32 31 31 30 30 30 29 27 26 23 24 29 27 27 28 30 30 27 23 25 27
46 44 41 34 34 34 36 40 43 42 39 37 35 32 31 30 28 27 26 25 25 24 26 29 32 32 31 30 29 30 31 32 32 34 34 35 36 36 37 38 38 38 39 38 37 33 32 31 30 30 32 31 28 29 27 30 27 25 27 30 32 34 33 32 32 33 32 31 28 28 28 27 26 26 27 25 22 22 25 27 28 20 17 24 25
45 46 39 27 36 45 45 46 46 41 38 37 35 32 30 28 26 24 23 23 25 27 31 33 33 32 30 29 29 29 30 31 33 34 35 35 35 36 36 37 37 37 38 37 37 33 31 29 30 34 35 32 31 25 24 27 28 27 29 31 32 35 34 33 33 34 33 32 28 25 25 26 25 25 26 24 20 21 23 23 24 23 20 26 25
44 46 43 37 45 51 44 43 42 38 35 34 34 31 28 27 26 26 26 27 28 30 31 31 31 31 31 30 29 29 31 32 33 34 34 34 34 34 34 35 35 34 35 35 35 33 31 29 35 36 34 30 27 25 23 26 28 28 28 32 35 36 32 32 31 32 32 31 26 26 20 20 21 23 24 23 23 22 21 22 23 23 24 23 26
50 51 49 47 44 36 33 38 36 34 31 30 29 28 27 26 26 27 28 28 29 29 30 30 31 31 31 30 30 31 32 32 33 33 33 33 33 33 33 32 31 31 31 31 33 33 30 33 36 34 30 27 23 22 21 23 27 23 30 37 38 33 29 30 29 26 28 30 29 24 21 19 18 20 23 25 24 23 22 22 22 22 22 24 24
53 51 48 43 37 32 27 30 32 30 29 28 28 28 27 26 26 26 26 27 28 29 30 30 30 30 30 30 30 31 31 32 32 33 32 32 32 31 31 31 30 29 30 29 30 31 31 38 30 29 27 26 25 25 24 24 26 27 35 39 34 24 24 28 24 16 23 27 26 22 21 19 15 18 24 24 24 24 24 23 22 22 24 23 22
51 47 44 39 34 29 30 31 27 26 26 27 28 28 27 26 25 25 26 26 27 28 29 29 29 29 28 28 29 29 29 30 30 31 31 30 29 29 30 29 28 28 28 28 28 29 33 31 29 28 25 24 25 25 26 27 31 31 32 30 26 22 21 24 22 18 22 22 22 22 21 19 17 17 23 23 23 24 25 24 24 25 26 23 22
46 44 41 36 32 27 31 28 27 26 25 25 25 26 25 24 24 24 25 25 27 28 28 28 28 27 26 26 26 27 28 28 27 27 27 26 26 26 26 27 27 27 28 26 26 29 29 29 28 27 23 24 27 27 27 28 31 32 29 23 18 18 19 18 18 21 23 18 19 20 18 16 14 15 20 21 22 23 23 22 22 24 24 22 20
41 40 38 35 31 33 31 29 28 26 25 24 24 24 24 24 24 25 25 26 26 27 27 27 27 26 25 25 25 25 26 26 24 22 22 22 23 23 23 24 25 25 26 26 24 26 28 26 26 26 26 28 28 28 28 27 27 32 30 22 18 17 16 16 16 23 18 17 17 15 13 13 12 12 18 21 22 23 21 17 19 22 22 21 20
35 36 35 33 31 33 31 28 26 25 24 24 24 24 24 25 25 25 25 25 25 25 25 26 25 25 24 23 23 23 23 23 22 20 19 20 20 21 21 20 21 22 23 24 23 26 24 24 25 28 27 28 29 29 30 29 31 30 30 25 19 15 16 13 16 19 16 17 16 14 12 12 12 11 15 21 22 23 18 17 15 16 16 20 19
31 30 30 31 29 30 28 25 23 23 23 23 23 24 24 24 24 23 23 23 24 23 24 24 23 22 22 22 21 20 20 20 19 19 19 18 18 18 19 19 20 21 22 22 23 27 20 22 25 25 27 28 29 30 29 28 29 30 29 24 19 17 17 16 17 15 15 16 15 13 13 13 13 12 16 19 21 19 16 15 17 18 18 19 20
25 25 26 25 28 27 25 23 22 22 22 23 23 22 22 23 22 22 22 22 22 21 21 21 21 19 20 19 19 18 18 18 18 18 18 17 18 17 17 18 19 20 21 21 21 25 22 19 21 24 26 26 27 28 28 26 27 27 26 22 19 19 19 18 18 14 14 15 13 12 13 15 14 13 14 18 17 16 13 13 17 18 18 19 19
22 24 24 24 21 23 23 22 22 21 21 21 21 21 21 21 21 21 21 20 20 19 19 19 18 17 18 18 17 17 17 17 17 17 17 16 16 16 16 15 16 17 18 19 20 22 23 19 19 20 25 26 26 28 27 23 25 24 21 19 19 21 21 20 18 16 15 13 13 13 13 14 14 14 14 16 14 14 10 12 15 17 17 18 18
20 21 20 19 17 21 21 20 20 20 19 19 19 20 20 20 19 19 18 17 16 17 17 17 16 16 16 16 16 16 16 15 14 14 13 13 14 15 15 13 14 15 15 17 18 19 21 20 20 20 24 27 28 24 18 20 20 20 20 20 19 23 18 19 20 17 13 13 12 12 12 12 13 14 14 15 15 17 11 11 12 16 17 17 16
18 16 15 15 15 15 19 18 18 18 18 18 18 17 17 17 16 16 16 15 15 16 16 15 14 14 14 15 15 15 14 13 12 10 11 11 11 13 13 13 13 13 14 15 16 17 19 20 20 21 24 26 26 22 20 20 15 19 20 20 19 21 17 19 19 15 12 11 10 11 10 11 12 13 13 14 13 15 15 11 11 15 16 17 16
16 14 13 14 15 15 15 15 16 16 16 16 16 15 14 14 14 14 14 14 14 14 14 13 13 13 14 14 14 14 12 10 9 9 9 10 10 10 11 11 11 13 13 15 15 16 18 19 19 22 23 24 24 22 20 16 17 18 18 18 18 17 18 19 17 13 10 10 9 11 11 13 13 13 14 16 8 12 13 13 10 15 16 15 16
14 14 15 14 14 14 14 14 13 13 13 13 13 13 13 11 11 11 10 11 12 12 13 12 12 13 13 13 12 12 9 9 9 9 9 9 9 8 8 9 10 12 14 14 15 16 17 17 18 20 22 22 22 20 17 16 15 16 16 16 14 16 18 19 17 13 11 10 9 10 11 13 13 13 16 14 7 8 11 11 12 16 17 17 17
12 12 13 12 13 13 13 13 12 13 11 11 10 10 11 10 8 8 10 9 10 10 11 12 11 15 12 16 13 9 8 8 8 8 7 7 7 7 7 7 8 10 13 13 14 15 16 15 16 17 19 20 19 17 15 13 13 13 13 14 13 15 17 17 16 13 12 9 10 11 11 9 13 13 14 10 7 7 7 11 10 16 18 18 17
11 11 12 12 10 11 10 10 10 10 10 10 10 10 8 9 8 7 8 9 9 10 13 14 17 19 18 13 10 9 7 8 6 6 5 6 7 7 6 8 8 9 11 13 13 13 12 12 12 14 16 16 16 14 13 11 11 11 11 11 14 16 16 16 16 15 13 13 12 12 10 8 12 13 9 8 9 8 7 8 8 15 18 17 17
11 13 14 12 12 10 10 10 10 10 10 11 12 11 10 8 8 9 9 11 12 14 18 19 21 21 20 20 16 10 7 6 4 5 3 6 7 7 9 6 8 10 11 11 11 9 8 8 9 10 12 13 13 12 11 10 9 9 9 11 13 19 20 19 18 18 17 14 12 12 7 7 10 10 7 10 8 5 6 5 8 14 17 17 17
9 11 13 13 13 14 13 13 12 12 11 13 14 13 11 11 11 11 12 12 14 13 16 15 17 17 17 17 15 8 6 6 5 6 3 8 7 7 10 7 7 9 11 11 10 6 6 6 5 7 8 11 11 11 11 12 11 8 9 11 17 19 18 18 15 15 15 14 14 12 6 7 8 10 9 8 5 4 8 7 8 13 16 17 17
8 10 11 12 14 13 14 15 nan 17 nan 19 18 17 17 17 nan nan 11 12 17 15 11 13 14 12 14 13 nan 10 8 7 7 5 8 8 8 9 11 10 7 8 9 11 10 5 4 5 4 4 7 8 9 11 12 12 17 17 17 18 20 20 20 19 17 16 13 13 12 12 9 6 9 11 9 6 4 4 7 8 10 13 15 16 17
6 8 9 13 14 14 nan nan nan nan nan nan nan nan nan nan nan nan nan nan 13 nan nan 13 nan nan nan nan nan nan nan 10 8 9 10 9 8 8 9 10 9 10 9 11 8 6 4 4 5 6 7 11 11 11 11 11 12 14 16 17 18 18 19 19 18 17 17 15 14 10 12 15 11 9 7 5 6 6 7 8 8 11 14 16 16
nan nan nan nan nan nan nan nan nan nan nan nan nan nan nan nan nan nan nan nan nan nan nan nan nan nan nan nan nan nan nan nan 14 17 12 9 9 8 10 12 12 11 14 12 10 7 7 5 6 10 10 10 11 12 11 11 10 10 12 15 14 15 15 15 14 16 14 14 14 9 10 13 14 12 6 6 9 10 11 7 5 7 11 15 15
nan 12 13 12 13 14 nan nan nan nan nan nan nan nan nan nan nan nan nan nan nan nan nan nan nan nan nan nan nan nan nan nan nan nan nan 11 11 10 10 12 12 12 13 11 10 8 8 6 6 7 8 8 10 10 10 10 8 9 11 13 14 14 13 13 13 14 14 13 13 12 12 11 11 14 13 12 14 16 11 8 5 4 7 13 14
13 18 16 17 16 16 19 20 nan nan nan nan nan nan nan nan nan nan nan nan nan nan nan nan nan nan nan nan nan nan nan nan nan nan nan nan nan nan 10 12 13 13 13 12 11 9 8 7 6 6 6 6 7 9 9 9 8 9 10 11 14 14 14 13 12 13 14 13 12 8 12 13 12 13 12 12 16 16 12 7 6 4 4 11 12
18 19 19 20 19 21 21 nan nan nan nan nan nan nan nan nan nan 18 nan nan nan nan nan nan nan nan nan nan nan nan nan nan nan nan nan nan nan nan nan 13 14 13 13 13 12 10 9 8 7 6 6 6 6 8 8 8 8 8 9 11 12 13 14 13 11 11 12 13 13 11 16 17 17 18 12 6 12 13 11 13 8 6 4 7 9
20 21 23 nan 22 22 22 24 nan nan nan nan nan nan nan nan nan nan nan 14 nan nan nan nan nan nan nan nan nan nan nan nan nan nan nan nan nan nan 14 15 15 13 13 13 13 11 10 9 8 7 7 7 6 5 6 6 7 8 8 10 10 11 12 12 11 13 14 14 15 15 17 20 20 19 12 7 9 11 11 13 9 5 4 4 7
nan nan 23 24 23 23 25 nan nan nan nan nan nan nan nan nan nan nan nan 15 nan nan nan nan nan nan nan nan nan nan nan nan nan nan nan nan nan nan nan 15 15 13 14 13 13 12 10 10 10 9 8 8 8 5 5 4 4 6 7 7 7 8 10 10 10 11 12 12 13 14 16 19 21 19 13 10 12 13 9 8 8 3 1 2 3
nan nan 22 23 21 24 25 25 nan nan nan nan nan nan nan nan nan nan nan 15 nan nan nan nan nan nan nan nan nan nan nan nan nan nan nan nan nan nan nan nan 14 nan 15 11 12 12 11 11 10 10 9 9 8 7 8 5 5 5 4 5 5 6 9 10 10 10 10 11 12 14 15 17 17 17 14 12 14 15 9 9 9 5 3 4 4
nan 21 20 20 19 21 22 22 21 22 22 23 nan nan nan nan nan nan nan nan nan nan nan nan nan nan nan nan nan nan nan nan nan nan nan nan nan nan nan nan nan nan 14 10 9 10 12 12 11 11 10 10 8 8 7 6 7 6 4 4 6 7 8 11 11 10 8 9 12 14 16 13 14 16 14 12 13 17 13 11 9 6 5 5 4
nan nan nan 18 17 18 17 18 20 21 22 22 22 21 nan nan nan nan nan nan 17 nan nan nan nan nan nan nan nan nan nan nan nan nan nan nan nan nan nan nan nan nan 16 12 9 10 11 12 12 10 10 12 11 9 8 7 7 7 5 5 9 9 8 10 9 8 9 10 13 14 15 15 10 12 13 12 10 12 14 12 11 8 8 8 6
nan nan 23 19 19 17 15 15 nan nan nan nan nan nan nan nan nan nan nan nan nan nan nan nan nan nan nan nan nan nan nan nan nan nan nan nan nan nan nan nan nan nan nan 13 10 10 11 11 10 10 11 13 12 10 10 9 8 8 7 6 7 7 7 8 9 8 8 11 13 13 13 13 13 9 11 10 9 7 9 10 11 11 11 9 8
nan 25 22 21 19 17 14 12 nan 15 17 16 17 nan nan nan 19 nan nan nan nan nan nan nan nan nan nan nan nan nan nan nan nan nan nan nan nan nan nan nan nan nan nan 16 15 11 9 9 8 11 10 12 12 10 10 10 9 9 8 6 4 5 8 8 9 10 11 12 12 12 11 12 13 14 12 6 7 8 8 8 9 12 11 11 10
nan nan nan nan 20 18 15 12 9 11 13 nan nan 16 17 nan nan 15 nan nan nan nan nan nan nan nan nan nan nan nan nan nan nan nan nan nan nan nan nan nan nan nan nan nan nan nan nan nan 8 8 9 9 10 10 10 8 9 8 7 8 5 7 9 7 8 12 14 13 14 13 11 12 14 15 13 10 4 6 9 8 8 9 11 12 13
nan nan nan 24 nan 19 17 nan 10 11 nan nan 12 nan 13 15 14 14 11 nan nan nan nan nan nan nan nan nan nan nan nan nan nan nan nan nan nan nan nan nan nan nan nan nan nan nan nan nan nan 9 nan 10 10 9 9 8 8 8 10 10 8 8 9 9 10 14 14 14 15 15 14 13 14 14 13 15 13 12 6 9 7 8 10 13 15
nan nan nan nan nan 22 18 nan 14 nan nan 11 10 10 10 12 11 14 11 nan nan nan nan nan nan nan nan nan nan nan nan nan nan nan nan nan nan nan nan nan nan nan nan nan nan nan nan nan nan nan nan 12 10 8 8 7 8 10 10 9 10 11 12 10 10 12 13 13 14 15 15 14 13 11 14 14 13 16 13 5 10 8 10 13 13
nan nan nan nan nan 25 nan nan nan nan nan nan 10 9 8 7 8 10 11 nan nan nan nan nan nan nan nan nan nan nan 13 nan nan nan nan 17 nan nan nan nan nan nan nan nan nan nan nan nan nan nan nan nan 12 10 8 8 8 8 9 10 10 nan nan 11 10 12 13 11 12 13 13 13 13 14 15 16 15 15 15 9 9 7 10 11 12
nan nan nan nan nan nan nan 22 19 17 13 10 8 8 6 5 5 7 nan 8 nan nan nan nan nan nan nan nan nan nan nan nan nan nan 17 nan nan nan nan nan nan nan nan nan nan nan nan nan nan nan nan nan nan nan nan nan 9 8 11 13 13 13 13 10 10 12 13 12 11 11 14 13 13 15 17 18 18 14 15 15 14 18 15 10 12
nan nan 27 nan nan nan nan 25 nan nan 17 12 10 7 6 5 4 3 5 5 nan 7 nan nan nan nan nan nan nan nan nan nan nan nan nan nan nan nan nan nan nan nan nan nan nan nan nan nan nan nan nan nan nan nan nan nan nan nan 13 14 14 14 13 12 12 13 14 13 11 11 11 12 14 16 18 19 18 17 15 14 14 13 17 10 14
nan 29 nan nan nan nan nan nan nan nan nan 18 14 11 9 7 6 5 5 5 5 5 nan nan nan nan nan nan nan nan nan nan nan nan nan nan nan nan nan nan nan nan nan nan nan nan nan nan nan nan nan nan nan nan nan nan nan nan 10 11 nan nan 11 13 13 13 13 12 11 10 9 12 13 15 18 19 19 20 15 15 15 14 14 17 15
31 nan nan nan 30 nan nan nan 28 nan nan 23 20 16 14 11 10 9 7 8 6 nan nan nan nan nan nan nan nan nan nan nan nan nan nan nan nan nan nan nan nan nan nan nan nan nan nan nan nan nan nan nan nan nan nan nan nan nan nan 9 nan nan nan nan 14 13 14 13 12 11 10 10 11 12 16 19 18 18 17 17 17 15 15 16 17
nan nan nan nan 32 nan nan nan nan 28 nan 26 nan nan 16 13 11 11 9 9 9 8 nan nan nan nan nan nan nan nan nan nan nan nan nan nan nan nan nan nan nan nan nan nan nan nan nan nan nan nan nan nan nan nan nan nan nan nan nan nan nan 12 nan nan nan nan nan 15 14 13 13 13 11 12 14 17 17 15 19 19 17 16 15 14 16
30 nan 31 33 nan 33 nan nan nan nan nan 28 26 nan 20 16 14 12 12 11 10 9 nan nan nan nan nan nan nan nan nan nan nan nan nan nan nan nan nan nan nan nan nan nan nan nan nan nan nan nan nan nan nan nan nan nan nan nan nan nan 5 nan nan nan nan nan nan nan 17 15 14 14 15 14 14 13 16 16 17 18 17 17 16 14 18
30 31 32 33 32 34 nan nan nan nan nan 29 27 nan 22 19 16 13 11 9 9 nan nan nan nan 8 nan nan nan nan nan nan nan nan nan nan nan nan nan nan nan nan nan nan nan nan nan nan nan nan nan nan nan nan nan nan nan 7 nan nan nan nan nan nan nan nan nan nan nan 15 14 15 16 16 15 12 14 17 20 24 23 20 17 18 20
29 30 31 32 31 32 32 nan nan nan nan 30 nan 27 27 nan nan nan 15 13 nan nan 10 nan nan nan nan nan nan nan nan nan nan nan nan nan nan nan nan nan nan nan nan nan nan nan nan nan nan nan nan nan nan nan nan nan nan nan nan 8 10 nan nan nan nan nan nan nan nan nan 14 14 nan nan 16 15 14 15 22 23 23 20 20 19 19
28 28 27 28 29 30 31 nan nan nan nan nan nan nan nan nan nan nan nan nan 18 nan nan nan nan nan nan nan nan nan nan nan nan nan nan nan nan nan nan nan nan nan nan nan nan nan nan nan nan nan nan nan nan nan nan nan nan nan nan nan nan 9 10 8 nan nan nan nan nan nan nan nan nan nan nan 14 15 15 18 22 20 20 20 22 19
25 24 26 25 27 28 28 nan nan 30 nan nan nan nan nan nan nan nan 25 nan 25 23 19 nan nan 12 nan nan nan nan nan nan nan nan nan nan nan nan nan nan nan nan nan nan nan nan nan nan nan nan nan nan nan nan nan nan nan nan nan nan nan nan nan 10 10 nan nan nan nan nan nan nan nan nan nan 13 14 14 16 19 20 21 22 20 20
20 23 24 24 24 25 26 25 nan 28 nan nan nan nan nan nan nan nan nan 29 27 25 22 20 19 nan nan nan nan nan nan nan nan nan nan nan nan nan nan nan nan nan nan nan nan nan nan nan nan nan nan nan nan nan nan nan nan nan nan nan nan nan nan nan nan nan nan nan nan nan nan nan nan nan nan nan 14 15 16 17 20 21 21 22 21
20 20 20 19 20 21 22 22 nan nan nan nan 28 nan nan 28 nan nan nan nan 27 25 23 nan nan nan nan nan nan nan nan nan nan nan nan nan nan nan nan nan nan nan nan nan nan nan nan nan nan nan nan nan nan nan nan nan nan nan nan nan nan nan nan nan nan nan nan nan nan nan nan nan nan nan nan nan nan 15 16 18 19 22 23 23 22
17 17 16 18 18 19 20 21 23 22 23 nan 24 26 nan nan nan nan 28 28 27 27 25 nan nan nan nan nan nan nan nan nan nan nan nan nan nan nan nan nan nan 7 nan nan nan nan nan nan nan nan nan nan nan nan nan nan nan nan nan nan nan nan nan nan nan nan nan nan nan nan nan nan nan nan nan nan nan nan 17 19 19 21 24 23 22
Wind_Direction
282 283 284 275 280 289 285 286 299 302 301 300 300 299 296 294 290 285 280 276 274 272 270 274 281 285 285 283 279 275 273 271 269 268 266 265 265 266 267 267 268 270 272 274 277 278 278 279 281 280 278 273 277 275 273 275 274 269 272 270 270 267 269 271 273 275 275 276 280 281 281 282 286 292 299 299 300 303 301 296 294 290 285 288 287
286 285 284 274 265 288 298 298 303 304 302 299 298 295 293 291 288 283 278 276 273 271 272 278 282 282 281 279 277 274 271 270 270 269 267 266 266 267 268 269 269 270 271 273 274 275 275 277 280 280 276 280 271 262 269 273 276 273 270 270 270 273 273 273 273 274 276 276 277 279 279 282 288 299 303 300 302 302 300 301 300 294 287 289 284
286 287 280 267 280 299 304 303 304 304 301 298 296 294 290 286 283 278 276 276 275 275 276 278 278 276 274 274 274 273 271 270 269 269 268 268 267 267 267 268 269 269 270 271 272 272 272 272 273 267 267 262 262 263 261 268 272 274 272 270 267 267 268 271 272 273 273 273 276 277 275 280 286 295 303 302 303 302 301 300 302 296 292 289 283
285 284 279 277 291 299 301 301 301 301 298 295 293 291 288 282 276 274 275 278 277 276 275 274 272 271 271 271 272 271 271 270 270 269 269 270 269 268 267 267 269 269 270 271 272 272 271 270 264 259 255 248 245 248 251 259 262 259 265 266 263 258 256 258 258 262 264 269 269 266 260 267 279 294 302 301 299 302 303 298 297 296 291 284 281
285 286 287 290 296 299 294 296 297 298 297 294 291 290 287 281 277 274 275 275 275 274 272 270 270 270 271 271 272 272 272 272 272 272 271 269 268 269 268 268 269 269 268 268 271 272 271 265 260 259 261 263 256 260 255 256 262 263 259 256 249 249 253 251 248 252 255 259 256 254 257 266 279 301 303 298 298 304 304 296 294 294 290 283 277
285 285 288 293 296 296 293 298 295 296 296 295 292 288 284 281 278 276 275 273 272 271 270 269 270 270 271 272 271 272 272 273 273 273 271 268 266 267 268 269 268 267 266 267 268 270 269 263 267 273 270 271 273 267 263 261 267 253 247 248 254 259 263 264 262 239 256 257 255 254 259 265 278 294 303 295 299 307 307 298 290 291 290 285 278
283 284 287 290 292 294 294 295 296 295 294 291 287 283 280 278 276 274 272 270 269 269 269 270 270 271 271 272 272 272 271 271 271 271 270 268 266 264 264 265 264 262 262 263 266 268 263 265 265 265 255 257 261 258 256 253 260 260 250 252 262 274 266 264 265 260 259 252 253 254 255 258 257 268 289 292 303 308 306 296 288 286 288 287 282
280 282 285 289 292 297 298 297 296 295 292 287 283 280 277 274 272 269 268 267 267 267 269 269 270 271 272 272 271 268 266 266 266 267 268 267 264 261 260 258 258 258 258 262 265 267 269 262 260 261 260 258 257 255 249 247 249 255 260 259 262 266 279 279 273 269 265 255 252 253 251 243 240 253 284 294 303 305 303 294 287 287 289 290 284
280 283 286 289 293 299 298 296 292 290 286 283 279 276 273 271 269 268 267 267 267 267 268 269 271 271 271 268 267 264 262 262 263 263 264 263 263 260 257 257 256 254 255 259 262 266 262 262 261 262 257 255 253 252 246 244 251 258 265 268 263 261 272 280 275 270 262 256 255 255 245 230 226 236 287 300 304 304 298 284 283 291 293 292 286
283 283 286 288 290 292 292 290 286 284 280 276 273 272 271 270 268 266 265 264 264 264 265 267 267 267 265 262 259 259 258 257 257 261 259 258 257 257 255 253 251 253 256 255 260 261 261 262 262 259 253 253 253 249 244 240 243 249 256 267 274 276 273 275 272 267 263 262 263 261 250 243 228 239 288 301 304 302 292 278 271 289 293 294 288
283 283 284 285 286 284 284 282 280 277 274 271 270 270 269 269 267 265 264 264 264 263 263 263 263 260 259 255 254 253 252 252 253 253 254 253 252 254 254 254 254 253 253 250 252 267 262 254 262 264 259 254 250 247 244 239 239 243 251 256 261 265 272 278 267 257 258 261 263 264 262 268 244 243 292 296 300 300 290 280 288 298 300 296 293
283 283 283 281 281 279 280 279 277 275 272 271 269 268 268 267 266 265 264 264 263 262 260 257 255 252 249 249 246 245 244 244 247 249 250 249 250 250 253 255 258 257 256 251 251 261 264 257 260 259 258 252 249 246 241 235 239 243 251 254 252 248 253 263 255 251 253 262 264 260 254 259 255 251 279 292 301 303 289 281 294 300 301 301 297
280 283 280 277 276 279 277 276 274 273 272 271 269 268 267 267 267 265 263 262 260 258 254 250 246 241 240 241 240 237 237 238 241 243 246 246 247 247 247 251 257 260 260 260 255 259 271 265 260 260 256 252 245 239 235 232 237 242 245 255 255 248 250 258 251 251 253 262 269 267 260 262 261 265 266 292 298 299 277 280 292 298 301 302 300
289 286 281 277 276 278 273 270 271 271 270 270 272 272 271 271 269 267 265 263 259 255 250 244 240 237 237 237 237 233 231 231 230 238 236 239 240 242 245 246 254 258 259 261 263 263 264 270 265 258 256 252 246 243 234 237 234 236 243 248 252 254 250 253 249 249 253 263 272 273 260 259 264 281 283 296 303 289 270 267 287 290 300 304 302
291 288 282 276 271 271 271 267 267 270 273 273 274 274 274 272 270 268 266 261 252 247 242 239 239 238 237 234 230 231 226 224 222 227 231 231 238 240 246 251 254 256 260 262 266 269 271 271 269 265 257 255 252 246 237 236 232 235 235 242 250 262 262 243 246 251 252 253 266 277 268 254 276 296 296 288 288 287 278 278 269 287 297 305 304
291 291 283 275 273 265 267 273 274 275 279 281 280 276 272 271 268 265 263 259 251 247 242 239 241 239 235 233 229 227 226 227 223 225 225 227 231 239 246 245 260 266 263 266 271 276 278 275 271 266 259 256 254 246 240 231 227 230 232 238 247 258 258 253 245 249 252 250 260 270 272 253 286 290 281 271 256 272 277 291 298 292 295 300 301
279 285 282 282 275 273 272 272 277 275 274 278 277 276 268 257 260 258 251 253 251 247 246 242 239 237 230 232 231 231 230 237 231 225 228 226 232 240 248 250 247 262 268 270 273 277 281 279 272 263 257 253 251 248 240 230 224 227 230 232 240 251 249 250 244 243 256 258 265 262 255 251 275 276 273 271 261 251 267 293 303 292 289 293 301
269 274 278 275 273 272 274 274 271 270 262 259 263 266 267 263 247 245 245 244 243 242 241 237 227 236 217 221 217 237 233 241 234 227 233 238 241 249 256 256 251 249 259 266 269 274 280 285 280 263 251 248 245 245 237 229 226 226 228 233 233 244 249 249 238 237 245 252 254 254 246 249 272 269 277 274 265 283 300 282 292 290 285 290 301
272 277 276 276 274 275 277 273 268 264 262 257 250 242 245 255 253 242 235 230 233 232 234 235 230 232 230 235 228 219 238 238 241 237 236 245 244 257 257 271 259 258 254 262 265 278 280 276 271 263 249 241 242 238 234 224 218 223 233 230 230 233 242 237 230 230 233 235 243 248 243 263 259 267 267 258 245 255 280 296 307 292 287 291 296
279 278 276 277 276 276 265 263 259 256 254 249 239 237 228 234 244 238 225 215 212 226 234 240 239 236 232 225 220 238 241 255 241 268 260 260 260 261 246 237 271 261 258 259 268 273 281 273 263 248 239 235 233 230 228 220 214 212 221 224 228 233 241 240 223 218 215 229 242 245 259 275 261 248 237 246 260 296 311 293 314 292 291 292 293
270 271 279 277 272 272 266 264 261 258 255 246 243 238 250 247 239 230 223 216 218 230 241 243 246 237 235 228 225 236 272 278 272 292 286 285 273 268 285 275 252 260 259 260 264 273 293 287 271 251 233 226 226 224 215 211 204 209 216 220 227 233 238 248 244 245 238 221 215 233 255 263 239 215 216 245 266 316 303 306 287 295 289 291 291
279 273 270 272 265 258 255 252 nan 246 nan 248 243 244 244 250 nan nan 255 248 243 244 243 249 247 248 237 243 nan 236 248 280 286 283 292 287 290 275 286 282 254 248 254 252 266 265 277 293 266 239 230 226 220 235 229 222 227 232 235 230 233 227 224 225 224 220 230 248 241 213 172 240 210 204 222 217 220 286 280 295 292 287 287 287 289
274 265 262 263 264 257 nan nan nan nan nan nan nan nan nan nan nan nan nan nan 245 nan nan 257 nan nan nan nan nan nan nan 252 270 255 279 264 275 260 275 281 280 268 272 265 259 278 281 267 246 234 229 224 235 243 247 241 233 227 234 237 236 236 234 227 220 215 206 206 230 249 187 168 190 204 229 227 201 225 261 277 280 280 289 286 287
nan nan nan nan nan nan nan nan nan nan nan nan nan nan nan nan nan nan nan nan nan nan nan nan nan nan nan nan nan nan nan nan 244 235 246 266 268 249 245 263 271 268 267 272 268 275 276 274 260 246 248 251 254 253 253 247 244 240 239 240 239 241 242 240 226 214 217 214 206 203 237 186 181 201 213 209 208 207 233 246 250 277 289 285 288
nan 282 267 263 258 253 nan nan nan nan nan nan nan nan nan nan nan nan nan nan nan nan nan nan nan nan nan nan nan nan nan nan nan nan nan 256 263 265 269 275 283 282 275 280 279 286 281 284 289 277 269 260 264 264 263 262 260 252 251 251 245 242 243 246 240 226 217 220 225 198 210 239 207 196 203 184 203 209 207 226 262 269 283 284 289
286 273 272 265 259 255 253 254 nan nan nan nan nan nan nan nan nan nan nan nan nan nan nan nan nan nan nan nan nan nan nan nan nan nan nan nan nan nan 262 276 277 279 281 280 276 277 281 282 277 279 283 274 274 274 261 270 277 271 260 254 247 243 241 240 237 235 229 226 230 236 231 246 250 235 218 182 197 212 212 218 239 249 265 287 290
291 288 280 273 267 260 258 nan nan nan nan nan nan nan nan nan nan 236 nan nan nan nan nan nan nan nan nan nan nan nan nan nan nan nan nan nan nan nan nan 271 277 280 283 285 277 275 276 276 268 271 280 276 272 272 265 271 276 278 272 262 249 244 241 238 233 233 237 235 233 247 246 256 263 252 247 196 209 214 217 219 197 198 229 279 283
290 287 280 nan 269 265 265 264 nan nan nan nan nan nan nan nan nan nan nan 238 nan nan nan nan nan nan nan nan nan nan nan nan nan nan nan nan nan nan 255 266 275 277 279 280 273 267 264 266 268 266 270 275 280 283 283 284 282 284 280 263 247 234 236 229 223 221 228 233 232 243 261 268 271 264 259 259 244 230 223 217 228 188 188 204 288
nan nan 286 278 275 273 268 nan nan nan nan nan nan nan nan nan nan nan nan 242 nan nan nan nan nan nan nan nan nan nan nan nan nan nan nan nan nan nan nan 254 265 267 274 276 277 270 259 251 254 258 266 274 284 297 303 302 290 283 281 268 245 232 229 225 220 220 225 235 244 244 266 275 274 271 276 271 260 261 238 241 256 253 250 194 231
nan nan 304 299 289 276 270 268 nan nan nan nan nan nan nan nan nan nan nan 253 nan nan nan nan nan nan nan nan nan nan nan nan nan nan nan nan nan nan nan nan 252 nan 254 248 273 279 268 263 261 261 262 268 274 284 287 297 292 278 266 263 257 230 228 231 228 220 216 223 235 243 263 278 282 278 276 276 269 271 257 249 262 255 215 246 186
nan 334 328 321 304 285 277 268 262 261 260 260 nan nan nan nan nan nan nan nan nan nan nan nan nan nan nan nan nan nan nan nan nan nan nan nan nan nan nan nan nan nan 250 252 254 264 265 265 264 265 268 271 274 276 283 299 301 294 276 262 255 246 236 234 234 234 235 247 254 250 247 259 280 284 282 286 280 288 277 272 289 295 296 317 291
nan nan nan 341 320 305 287 273 267 264 262 260 261 262 nan nan nan nan nan nan 260 nan nan nan nan nan nan nan nan nan nan nan nan nan nan nan nan nan nan nan nan nan 244 247 250 245 247 255 259 267 272 272 272 276 286 287 287 289 286 251 243 241 241 244 244 246 249 254 262 260 257 253 260 290 294 298 290 294 290 295 311 311 315 314 312
nan nan 359 349 340 332 307 285 nan nan nan nan nan nan nan nan nan nan nan nan nan nan nan nan nan nan nan nan nan nan nan nan nan nan nan nan nan nan nan nan nan nan nan 242 238 237 239 249 255 268 273 276 273 267 268 267 279 282 271 256 257 258 257 254 257 257 256 258 260 260 262 264 261 284 306 306 306 297 295 307 311 311 319 310 316
nan 9 2 357 357 351 336 309 nan 271 273 274 271 nan nan nan 268 nan nan nan nan nan nan nan nan nan nan nan nan nan nan nan nan nan nan nan nan nan nan nan nan nan nan 236 230 228 233 242 254 264 268 271 268 266 266 262 260 260 265 271 275 277 264 247 245 248 245 240 246 253 261 267 266 265 271 319 328 309 295 296 315 317 320 314 303
nan nan nan nan 5 3 355 338 309 284 280 nan nan 275 276 nan nan 271 nan nan nan nan nan nan nan nan nan nan nan nan nan nan nan nan nan nan nan nan nan nan nan nan nan nan nan nan nan nan 259 268 276 268 264 268 266 256 258 251 255 263 256 253 260 258 252 255 246 235 232 239 260 279 277 272 272 260 285 318 293 298 304 311 316 311 306
nan nan nan 16 nan 13 4 nan 340 319 nan nan 297 nan 283 277 279 275 271 nan nan nan nan nan nan nan nan nan nan nan nan nan nan nan nan nan nan nan nan nan nan nan nan nan nan nan nan nan nan 270 nan 261 270 265 258 251 251 243 245 252 252 246 249 242 236 241 242 233 232 237 250 269 280 273 271 261 240 219 286 298 292 292 296 300 306
nan nan nan nan nan 21 12 nan 360 nan nan 328 322 311 291 278 276 279 271 nan nan nan nan nan nan nan nan nan nan nan nan nan nan nan nan nan nan nan nan nan nan nan nan nan nan nan nan nan nan nan nan 265 266 266 250 248 251 248 247 242 237 241 245 241 239 246 246 240 238 240 249 261 272 277 261 266 262 245 228 234 276 273 286 295 309
nan nan nan nan nan 25 nan nan nan nan nan nan 346 330 317 296 279 281 283 nan nan nan nan nan nan nan nan nan nan nan 256 nan nan nan nan 259 nan nan nan nan nan nan nan nan nan nan nan nan nan nan nan nan 264 256 244 246 261 255 250 250 240 nan nan 238 240 246 253 250 240 238 250 258 265 264 257 256 263 264 262 249 303 293 272 282 302
nan nan nan nan nan nan nan 28 19 17 9 360 345 342 345 318 298 276 nan 291 nan nan nan nan nan nan nan nan nan nan nan nan nan nan 256 nan nan nan nan nan nan nan nan nan nan nan nan nan nan nan nan nan nan nan nan nan 262 261 250 249 250 249 250 248 245 254 257 257 252 242 253 257 263 268 263 253 255 260 266 266 249 238 255 304 294
nan nan 28 nan nan nan nan 36 nan nan 19 9 4 3 346 346 328 291 273 279 nan 306 nan nan nan nan nan nan nan nan nan nan nan nan nan nan nan nan nan nan nan nan nan nan nan nan nan nan nan nan nan nan nan nan nan nan nan nan 248 247 247 247 251 249 244 246 251 257 260 255 257 258 263 264 263 254 246 251 256 255 254 250 240 251 280
nan 29 nan nan nan nan nan nan nan nan nan 22 24 21 25 31 24 357 3 5 345 338 nan nan nan nan nan nan nan nan nan nan nan nan nan nan nan nan nan nan nan nan nan nan nan nan nan nan nan nan nan nan nan nan nan nan nan nan 251 252 nan nan 256 255 250 248 254 263 267 262 262 256 255 257 255 249 242 244 244 259 260 258 250 240 257
36 nan nan nan 34 nan nan nan 39 nan nan 31 29 28 35 40 38 38 33 43 26 nan nan nan nan nan nan nan nan nan nan nan nan nan nan nan nan nan nan nan nan nan nan nan nan nan nan nan nan nan nan nan nan nan nan nan nan nan nan 232 nan nan nan nan 257 251 249 251 257 261 263 255 252 256 253 246 243 247 251 256 265 268 248 237 241
nan nan nan nan 37 nan nan nan nan 35 nan 36 nan nan 42 45 44 49 39 47 42 38 nan nan nan nan nan nan nan nan nan nan nan nan nan nan nan nan nan nan nan nan nan nan nan nan nan nan nan nan nan nan nan nan nan nan nan nan nan nan nan 244 nan nan nan nan nan 251 253 254 252 257 251 258 257 248 245 244 248 246 252 266 263 246 238
36 nan 35 35 nan 39 nan nan nan nan nan 38 38 nan 42 46 47 48 49 37 44 40 nan nan nan nan nan nan nan nan nan nan nan nan nan nan nan nan nan nan nan nan nan nan nan nan nan nan nan nan nan nan nan nan nan nan nan nan nan nan 310 nan nan nan nan nan nan nan 254 248 249 248 248 249 254 252 244 240 247 247 245 243 264 264 253
38 37 37 37 38 39 nan nan nan nan nan 39 38 nan 41 44 48 47 47 49 47 nan nan nan nan 38 nan nan nan nan nan nan nan nan nan nan nan nan nan nan nan nan nan nan nan nan nan nan nan nan nan nan nan nan nan nan nan 3 nan nan nan nan nan nan nan nan nan nan nan 247 246 245 241 242 247 251 254 242 238 240 232 228 233 250 254
40 41 39 39 40 43 44 nan nan nan nan 42 nan 39 40 nan nan nan 49 46 nan nan 44 nan nan nan nan nan nan nan nan nan nan nan nan nan nan nan nan nan nan nan nan nan nan nan nan nan nan nan nan nan nan nan nan nan nan nan nan 346 360 nan nan nan nan nan nan nan nan nan 254 247 nan nan 243 243 243 240 242 241 242 238 241 241 242
43 42 41 42 42 44 45 nan nan nan nan nan nan nan nan nan nan nan nan nan 47 nan nan nan nan nan nan nan nan nan nan nan nan nan nan nan nan nan nan nan nan nan nan nan nan nan nan nan nan nan nan nan nan nan nan nan nan nan nan nan nan 342 343 337 nan nan nan nan nan nan nan nan nan nan nan 248 242 244 248 247 244 238 245 251 248
41 42 43 44 43 44 45 nan nan 46 nan nan nan nan nan nan nan nan 48 nan 46 51 52 nan nan 46 nan nan nan nan nan nan nan nan nan nan nan nan nan nan nan nan nan nan nan nan nan nan nan nan nan nan nan nan nan nan nan nan nan nan nan nan nan 334 337 nan nan nan nan nan nan nan nan nan nan 247 251 249 248 253 251 244 239 250 255
39 40 43 44 45 46 46 47 nan 47 nan nan nan nan nan nan nan nan nan 53 50 52 54 56 58 nan nan nan nan nan nan nan nan nan nan nan nan nan nan nan nan nan nan nan nan nan nan nan nan nan nan nan nan nan nan nan nan nan nan nan nan nan nan nan nan nan nan nan nan nan nan nan nan nan nan nan 255 254 252 248 250 250 246 246 252
35 38 40 43 47 48 47 46 nan nan nan nan 46 nan nan 48 nan nan nan nan 54 55 52 nan nan nan nan nan nan nan nan nan nan nan nan nan nan nan nan nan nan nan nan nan nan nan nan nan nan nan nan nan nan nan nan nan nan nan nan nan nan nan nan nan nan nan nan nan nan nan nan nan nan nan nan nan nan 255 259 254 248 247 245 244 247
30 31 34 39 43 44 46 46 48 48 48 nan 46 47 nan nan nan nan 49 51 51 50 55 nan nan nan nan nan nan nan nan nan nan nan nan nan nan nan nan nan nan 284 nan nan nan nan nan nan nan nan nan nan nan nan nan nan nan nan nan nan nan nan nan nan nan nan nan nan nan nan nan nan nan nan nan nan nan nan 260 261 254 246 243 239 242